FW4096 Weather Reports


Display with metric or nautical units.
time (UTC)temp
F
wind
direction
speed
MPH
gust
MPH
rain 1hr
in
rain 24hr
in
rain mn
in
humidity
%
barometer
mb
20260505060003 49 241 13.0 17.0 0.00 0.09 0.00 80 1005.1
20260505055503 49 240 13.0 17.0 0.00 0.09 0.00 80 1004.9
20260505055003 49 237 13.0 19.0 0.00 0.09 0.00 79 1005.0
20260505054606 49 236 13.0 19.0 0.00 0.09 0.00 79 1005.0
20260505054003 49 236 14.0 19.0 0.00 0.09 0.00 79 1004.9
20260505053504 49 237 14.0 19.0 0.00 0.09 0.00 79 1004.9
20260505053004 48 238 15.0 19.0 0.00 0.09 0.00 78 1004.8
20260505052504 48 238 15.0 21.0 0.00 0.09 0.00 78 1004.8
20260505052004 48 237 15.0 21.0 0.00 0.09 0.00 78 1004.7
20260505051504 48 236 15.0 21.0 0.00 0.09 0.00 78 1004.7
20260505051004 48 235 15.0 20.0 0.00 0.09 0.00 78 1004.7
20260505050504 48 235 15.0 21.0 0.00 0.09 0.00 77 1004.6
20260505041504 48 228 14.0 19.0 0.00 0.09 0.00 80 1004.5
20260505041003 48 225 14.0 21.0 0.00 0.09 0.00 82 1004.4
20260505040606 47 224 13.0 21.0 0.00 0.09 0.00 83 1004.5
20260505040004 47 223 11.0 17.0 0.00 0.09 0.00 85 1004.4
20260505035503 47 224 12.0 17.0 0.00 0.09 0.00 86 1004.6
20260505035004 47 224 12.0 16.0 0.00 0.09 0.00 86 1004.7
20260505034504 46 223 11.0 16.0 0.00 0.09 0.00 87 1004.6
20260505034106 46 221 11.0 14.0 0.00 0.09 0.00 87 1004.5
20260505033606 46 219 11.0 15.0 0.00 0.09 0.00 88 1004.5
20260505033003 46 219 12.0 16.0 0.00 0.09 0.00 88 1004.4
20260505032503 46 221 12.0 17.0 0.00 0.09 0.00 88 1004.4
20260505032003 46 220 11.0 18.0 0.00 0.09 0.00 88 1004.5
20260505031503 46 219 12.0 18.0 0.00 0.09 0.00 88 1004.6
20260505031003 46 218 12.0 17.0 0.00 0.09 0.00 89 1004.6
20260505030503 46 218 12.0 18.0 0.00 0.09 0.00 89 1004.5
20260505030003 46 219 12.0 18.0 0.00 0.09 0.00 90 1004.5
20260505025503 45 217 11.0 16.0 0.00 0.09 0.00 90 1004.5
20260505025004 45 217 11.0 18.0 0.00 0.09 0.00 89 1004.5
20260505024503 45 220 11.0 18.0 0.00 0.09 0.00 90 1004.6
20260505024003 45 214 10.0 16.0 0.00 0.09 0.00 89 1004.5
20260505023503 45 207 10.0 14.0 0.00 0.09 0.00 89 1004.4
20260505023106 45 213 10.0 15.0 0.00 0.09 0.00 89 1004.6
20260505022503 45 216 10.0 15.0 0.00 0.09 0.00 90 1004.7
20260505022003 45 213 9.0 15.0 0.00 0.09 0.00 89 1004.6
20260505021504 45 215 11.0 17.0 0.00 0.09 0.00 90 1004.7
20260505021003 45 219 11.0 17.0 0.00 0.09 0.00 90 1004.7
20260505020606 45 221 11.0 16.0 0.00 0.09 0.00 90 1004.7
20260505020004 45 224 12.0 17.0 0.00 0.09 0.00 90 1004.7
20260505015503 45 223 12.0 17.0 0.00 0.09 0.00 90 1004.8
20260505015106 45 221 12.0 19.0 0.00 0.09 0.00 90 1004.9
20260505014503 45 221 12.0 19.0 0.00 0.09 0.00 91 1004.8
20260505014004 45 220 10.0 15.0 0.00 0.09 0.00 91 1004.8
20260505013504 45 216 9.0 14.0 0.00 0.09 0.00 91 1004.7
20260505013003 45 215 9.0 12.0 0.00 0.09 0.00 91 1004.8
20260505012504 45 216 8.0 13.0 0.00 0.09 0.00 91 1004.8
20260505012004 45 216 8.0 16.0 0.00 0.09 0.00 91 1004.8
20260505011504 45 216 8.0 16.0 0.00 0.09 0.00 91 1004.8
20260505011004 45 220 9.0 15.0 0.00 0.09 0.00 91 1004.9
20260505010504 45 222 10.0 14.0 0.00 0.09 0.00 91 1004.9
20260505010004 45 223 9.0 14.0 0.00 0.09 0.00 91 1004.9
20260505005504 45 222 9.0 13.0 0.00 0.09 0.00 91 1004.9
20260505005004 45 222 9.0 13.0 0.00 0.09 0.00 91 1004.9
20260505004504 45 224 9.0 12.0 0.00 0.09 0.00 91 1004.9
20260505004004 45 225 9.0 13.0 0.00 0.09 0.00 92 1005.0
20260505003504 45 227 9.0 14.0 0.00 0.09 0.00 92 1004.9
20260505003004 45 226 9.0 14.0 0.00 0.09 0.00 92 1004.9
20260505002504 45 225 9.0 13.0 0.00 0.09 0.00 92 1004.8
20260505002004 45 223 10.0 13.0 0.00 0.09 0.00 92 1004.9
20260505001504 45 221 9.0 14.0 0.00 0.09 0.00 92 1004.9
20260505001004 45 221 8.0 14.0 0.00 0.09 0.00 92 1004.9
20260505000607 45 219 8.0 12.0 0.00 0.09 0.00 92 1004.8
20260505000004 45 217 7.0 11.0 0.00 0.09 0.00 92 1005.0
20260504235504 45 217 8.0 12.0 0.00 0.09 0.00 91 1004.9
20260504235004 46 221 8.0 13.0 0.00 0.09 0.00 91 1004.9
20260504234504 46 223 9.0 14.0 0.00 0.09 0.00 92 1004.9
20260504234107 46 222 9.0 15.0 0.00 0.09 0.00 92 1005.0
20260504233504 46 223 10.0 15.0 0.00 0.09 0.00 92 1004.9
20260504233003 46 224 10.0 14.0 0.00 0.09 0.00 92 1005.1
20260504232503 46 226 11.0 14.0 0.00 0.09 0.00 92 1005.0
20260504232003 46 227 11.0 14.0 0.00 0.09 0.00 92 1005.0
20260504231503 46 228 11.0 18.0 0.00 0.09 0.00 92 1005.1
20260504231106 46 229 11.0 18.0 0.00 0.09 0.00 92 1005.0
20260504230004 46 228 12.0 17.0 0.00 0.09 0.00 92 1005.0
20260504225503 46 227 12.0 17.0 0.00 0.09 0.00 92 1005.0
20260504225003 46 228 12.0 15.0 0.00 0.09 0.00 92 1005.1
20260504224503 46 229 12.0 18.0 0.00 0.09 0.00 92 1005.1
20260504224003 46 230 12.0 18.0 0.00 0.09 0.00 92 1005.1
20260504223504 46 230 12.0 17.0 0.00 0.09 0.00 92 1005.2
20260504223003 46 231 12.0 17.0 0.00 0.09 0.00 92 1005.1
20260504222606 46 232 12.0 16.0 0.00 0.09 0.00 92 1005.2
20260504222106 46 234 11.0 16.0 0.00 0.09 0.00 92 1005.3
20260504221504 46 235 11.0 16.0 0.00 0.09 0.00 92 1005.3
20260504221107 46 234 10.0 15.0 0.00 0.09 0.00 93 1005.3
20260504220503 46 233 11.0 15.0 0.00 0.09 0.00 92 1005.4
20260504220003 46 231 11.0 15.0 0.00 0.09 0.00 93 1005.4
20260504215503 46 227 10.0 15.0 0.00 0.09 0.09 93 1005.3
20260504215003 46 225 10.0 14.0 0.00 0.09 0.09 93 1005.3
20260504214503 46 226 10.0 14.0 0.00 0.09 0.09 93 1005.3
20260504214003 46 225 10.0 14.0 0.00 0.09 0.09 93 1005.3
20260504213503 45 220 9.0 14.0 0.00 0.09 0.09 93 1005.4
20260504213003 45 216 7.0 12.0 0.00 0.09 0.09 93 1005.2
20260504212503 45 218 7.0 12.0 0.00 0.09 0.09 93 1005.3
20260504212003 45 220 8.0 13.0 0.00 0.09 0.09 93 1005.4
20260504211503 45 216 8.0 13.0 0.00 0.09 0.09 93 1005.4
20260504211106 45 213 6.0 12.0 0.00 0.09 0.09 93 1005.5
20260504210503 45 220 8.0 12.0 0.00 0.09 0.09 93 1005.5
20260504210003 45 221 9.0 15.0 0.00 0.09 0.09 93 1005.5
20260504205503 45 221 8.0 15.0 0.00 0.09 0.09 93 1005.5
20260504205003 45 225 10.0 15.0 0.00 0.09 0.09 93 1005.6
20260504204503 45 231 11.0 15.0 0.00 0.09 0.09 93 1005.6
20260504204108 45 234 12.0 17.0 0.00 0.09 0.09 93 1005.6
20260504203607 45 236 12.0 17.0 0.00 0.09 0.09 93 1005.6
20260504203004 45 237 11.0 15.0 0.00 0.09 0.09 93 1005.8
20260504202504 45 233 10.0 15.0 0.00 0.09 0.09 93 1005.8
20260504202004 45 232 10.0 14.0 0.00 0.09 0.09 93 1005.9
20260504201607 45 235 10.0 14.0 0.00 0.09 0.09 92 1005.9
20260504201004 44 234 10.0 16.0 0.00 0.09 0.09 92 1005.8
20260504200504 44 233 11.0 16.0 0.00 0.09 0.09 92 1005.9
20260504200004 44 232 11.0 16.0 0.00 0.09 0.09 92 1005.9
20260504195504 44 234 11.0 16.0 0.00 0.09 0.09 92 1005.8
20260504195004 44 239 11.0 15.0 0.00 0.09 0.09 92 1005.8
20260504194607 44 238 11.0 15.0 0.00 0.09 0.09 92 1005.8
20260504194004 44 234 10.0 15.0 0.00 0.09 0.09 92 1005.7
20260504193504 45 227 8.0 12.0 0.00 0.09 0.09 92 1005.7
20260504193004 44 212 5.0 12.0 0.00 0.09 0.09 92 1005.7
20260504192607 43 182 3.0 7.0 0.00 0.09 0.09 92 1005.7
20260504192004 43 167 3.0 6.0 0.00 0.09 0.09 92 1005.5
20260504191503 43 165 3.0 6.0 0.00 0.09 0.09 92 1005.6
20260504191003 43 171 3.0 5.0 0.00 0.09 0.09 92 1005.6
20260504190504 43 186 2.0 5.0 0.00 0.09 0.09 92 1005.6
20260504190107 43 195 2.0 3.0 0.00 0.09 0.09 92 1005.5
20260504185504 43 203 2.0 3.0 0.00 0.09 0.09 92 1005.5
20260504185004 43 216 3.0 4.0 0.00 0.09 0.09 92 1005.5
20260504184607 43 225 3.0 4.0 0.00 0.09 0.09 92 1005.4
20260504184107 43 228 3.0 5.0 0.00 0.09 0.09 92 1005.4
20260504183503 43 226 3.0 5.0 0.00 0.09 0.09 92 1005.4
20260504183003 43 226 3.0 5.0 0.00 0.09 0.09 92 1005.4
20260504182503 43 227 2.0 5.0 0.00 0.09 0.09 92 1005.4
20260504182003 43 229 1.0 3.0 0.00 0.09 0.09 92 1005.4
20260504181503 43 230 2.0 4.0 0.00 0.09 0.09 92 1005.5
20260504181003 44 231 3.0 5.0 0.00 0.09 0.09 92 1005.4
20260504180503 43 237 3.0 7.0 0.00 0.09 0.09 91 1005.3
20260504180004 43 242 4.0 7.0 0.00 0.09 0.09 91 1005.3
20260504175006 43 246 5.0 9.0 0.00 0.09 0.09 91 1005.3
20260504174503 43 257 6.0 9.0 0.00 0.09 0.09 91 1005.2
20260504174003 43 268 6.0 10.0 0.00 0.09 0.09 91 1005.3
20260504173606 43 269 6.0 10.0 0.00 0.09 0.09 91 1005.3
20260504173003 43 262 6.0 9.0 0.00 0.09 0.09 91 1005.3
20260504172503 43 255 7.0 11.0 0.00 0.09 0.09 90 1005.4
20260504172003 44 262 8.0 12.0 0.00 0.09 0.09 90 1005.4
20260504171503 44 268 8.0 12.0 0.00 0.09 0.09 89 1005.4
20260504171003 44 266 6.0 11.0 0.00 0.09 0.09 89 1005.2
20260504170503 44 270 6.0 10.0 0.00 0.09 0.09 88 1005.3
20260504151107 46 257 6.0 8.0 0.00 0.09 0.09 87 1004.7
20260504150503 47 260 6.0 7.0 0.00 0.09 0.09 88 1004.8
20260504150107 46 263 5.0 7.0 0.00 0.09 0.09 87 1004.7
20260504141003 48 262 3.0 4.0 0.00 0.09 0.09 88 1004.1
20260504140503 48 269 3.0 6.0 0.00 0.09 0.09 88 1004.1
20260504140106 49 272 3.0 6.0 0.00 0.09 0.09 89 1004.2
20260504130503 46 14 3.0 5.0 0.01 0.09 0.09 91 1004.1
20260504110503 44 78 2.0 4.0 0.02 0.09 0.09 90 1004.0
20260504100606 46 17 3.0 5.0 0.03 0.06 0.06 89 1004.7
20260504082004 47 335 3.0 6.0 0.01 0.01 0.01 87 1005.7
20260504081504 47 351 3.0 8.0 0.01 0.01 0.01 87 1005.4
20260504081004 47 331 5.0 9.0 0.01 0.01 0.01 87 1005.2
20260504080504 47 307 5.0 9.0 0.01 0.01 0.01 86 1005.5